[[{"header":{"parameterUnit":"m.s-1","parameterCategory":2,"la1":30.2991,"la2":30.254,"lo1":-89.0895,"lo2":-89.0444,"dy":0.0017,"dx":0.0017,"nx":28,"ny":28,"refTime":"2025-06-22T21:00:00:Z","depth":"0","parameterNumber":2,"parameterNumberName":"U-component_of_CURRENTS"},"data":[0,0,0,0,0,0,0,0,0,0,0,0,0,0,0,0,0,0,0,0,0,0,0,0,0,0,0,0,0,0,0,0,0,0,0,0,0,0,0,0,0,0,0,0,0,0,0,0,0,0,0,0,0,0,0,0,0,0,0.3546,0.3547,0,0.3607,0.3607,0.3607,0.3619,0.3619,0.3619,0.3619,0.365,0.3651,0.3652,0,0,0,0,0,0,0,0,0,0,0,0,0,0.3458,0.3459,0.3546,0.3547,0.3548,0.3607,0.3607,0.3608,0.3619,0.3619,0.3619,0.3618,0.365,0.3651,0.3652,0,0,0,0,0,0,0,0,0,0,0,0,0,0.3501,0.3459,0.3545,0.3564,0.3566,0.3607,0.3607,0.3608,0.3619,0.3619,0.3619,0.3618,0.365,0.3651,0.3652,0.3665,0,0,0.3657,0.3657,0,0,0,0,0,0,0,0,0.3499,0.3504,0.356,0.3562,0.3565,0.3608,0.3588,0.3627,0.3619,0.3595,0.3619,0.3618,0.3636,0.3639,0.3646,0.3667,0.3668,0.3657,0.3658,0.3658,0.3659,0,0,0,0,0,0,0,0.3496,0.3502,0.3566,0.3561,0.3565,0.3576,0.3581,0.3595,0.3612,0.3597,0.3599,0.3612,0.3637,0.3644,0.3646,0.3669,0.3657,0.3658,0.3659,0.366,0.3787,0.3789,0,0,0,0,0,0,0.3496,0.3499,0.3564,0.3568,0.3535,0.3577,0.3583,0.3592,0.3613,0.3617,0.3612,0.3612,0.3642,0.3645,0.3647,0.3721,0.3658,0.366,0.3661,0.3785,0.3788,0.379,0,0,0,0,0,0,0.3493,0.3501,0.3562,0.3538,0.3547,0.3579,0.3589,0.3593,0.3608,0.3625,0.3628,0.3624,0.3642,0.3645,0.3695,0.372,0.366,0.3662,0.3782,0.3785,0.3789,0.383,0,0,0,0,0,0,0.3491,0.3499,0.3505,0.3538,0.3549,0.3598,0.3589,0.3594,0.3618,0.3619,0.3637,0.3639,0.3642,0.3694,0.3697,0.372,0.3663,0.3778,0.3783,0.3788,0.3826,0.3835,0.3843,0,0,0,0,0,0.3487,0.3504,0.3505,0.3513,0.3555,0.3599,0.3605,0.3625,0.3619,0.3635,0.3662,0.3639,0.3725,0.3697,0.37,0.3725,0.3776,0.3782,0.3787,0.3822,0.3833,0.3843,0,0,0,0,0,0,0.3463,0.3508,0.3509,0.3536,0.3568,0.3603,0.3623,0.363,0.3662,0.3663,0.367,0.3676,0.3736,0.373,0.3698,0.378,0.3747,0.3754,0.3772,0.3783,0.3791,0.3809,0.3664,0,0,0,0,0,0.3462,0.3489,0.3526,0.3547,0.3565,0.3591,0.3611,0.3623,0.3657,0.3669,0.3686,0.3714,0.3761,0.377,0.3808,0.384,0.3882,0.3862,0.387,0.3877,0.3898,0.3998,0.4017,0.3809,0.3809,0.3809,0,0,0.3457,0.3487,0.35,0.3545,0.357,0.3608,0.3602,0.3638,0.3675,0.3668,0.3722,0.3749,0.3783,0.3838,0.3861,0.3831,0.3961,0.3884,0.389,0.3907,0.4006,0.4026,0.4044,0.3813,0.3812,0.3811,0,0,0.3471,0.349,0.3519,0.3552,0.3598,0.3623,0.3635,0.3674,0.3698,0.3744,0.3772,0.3822,0.3855,0.3904,0.3928,0.4006,0.4016,0.4007,0.4045,0.4141,0.4159,0.4175,0.4259,0.4283,0.3994,0.3994,0.3994,0,0.3459,0.3503,0.3533,0.3573,0.3606,0.3632,0.367,0.3706,0.3757,0.3791,0.3765,0.3882,0.3892,0.4,0.4024,0.4024,0.4079,0.3995,0.4152,0.4169,0.4185,0.4267,0.4292,0.3996,0.3996,0.3996,0.3996,0,0.3494,0.3534,0.3558,0.3618,0.3656,0.3696,0.375,0.3789,0.3806,0.3841,0.3938,0.3973,0.4044,0.405,0.4052,0.4178,0.4183,0.4162,0.412,0.4208,0.4289,0.4315,0.4,0.3999,0.3998,0.3998,0,0,0.3446,0.356,0.3565,0.3597,0.3683,0.3708,0.3792,0.3871,0.3925,0.3969,0.4059,0.4126,0.4148,0.4182,0.4206,0.4268,0.4411,0.4256,0.426,0.4331,0.4633,0.4574,0.4596,0.4419,0.4424,0.4427,0.4646,0,0.3459,0.3538,0.3599,0.3666,0.3707,0.3772,0.3844,0.3917,0.3981,0.4074,0.4142,0.4233,0.4203,0.4243,0.4312,0.4409,0.4481,0.4354,0.4547,0.4553,0.4482,0.4625,0.442,0.4592,0.4671,0.4675,0.4678,0,0.3463,0.352,0.3592,0.369,0.3712,0.3755,0.3867,0.394,0.409,0.4146,0.426,0.4327,0.4474,0.441,0.4624,0.455,0.46,0.4645,0.4654,0.4605,0.4542,0.4519,0.4635,0.45,0.4717,0.4714,0.4711,0,0.3401,0.3506,0.3562,0.3595,0.3713,0.3752,0.3816,0.395,0.4047,0.4217,0.4314,0.4471,0.458,0.4686,0.4784,0.4726,0.5001,0.493,0.4928,0.4924,0.4791,0.4767,0.479,0.5074,0.5073,0.5073,0.5072,0,0.3394,0.343,0.3529,0.3555,0.362,0.3703,0.3803,0.3897,0.4076,0.4205,0.4353,0.4493,0.4655,0.4821,0.487,0.5006,0.5084,0.4985,0.4996,0.4799,0.4774,0.468,0.4614,0.5081,0.5079,0.5077,0.5076,0,0.3342,0.3405,0.3469,0.3571,0.3597,0.3643,0.3807,0.3889,0.406,0.4251,0.4324,0.4577,0.4792,0.4944,0.5136,0.5125,0.51,0.5249,0.5003,0.498,0.4804,0.4748,0.4686,0.4543,0.5297,0.5297,0.5297,0,0.3341,0.3366,0.3463,0.3496,0.3546,0.3629,0.3696,0.3865,0.397,0.4284,0.4372,0.4658,0.4817,0.5112,0.5163,0.5292,0.5126,0.5149,0.4985,0.4812,0.476,0.4579,0.4448,0.4835,0.4831,0.4828,0.4826,0,0.3344,0.3369,0.342,0.348,0.3535,0.3605,0.3706,0.3784,0.3991,0.4156,0.4361,0.452,0.4828,0.489,0.5083,0.5109,0.4886,0.5089,0.4983,0.4479,0.4214,0.4072,0.4672,0.4799,0.4802,0.4804,0.4805,0.4806,0.3348,0.3367,0.3417,0.3456,0.351,0.3531,0.3542,0.3668,0.3793,0.3984,0.4217,0.4384,0.461,0.485,0.4859,0.474,0.4718,0.4583,0.4561,0.4418,0.4169,0.471,0.4792,0.4795,0.4797,0.4799,0.48,0,0.333,0.3339,0.3389,0.3401,0.3393,0.345,0.3506,0.3487,0.3541,0.3786,0.3945,0.4147,0.4253,0.4397,0.4408,0.4241,0.4025,0.4115,0.38,0.372,0.428,0.4145,0.3999,0.3999,0.3999,0.3999,0.4,0.4,0.3325,0.3326,0.3319,0.3261,0.3254,0.3181,0.3165,0.317,0.3273,0.3376,0.3488,0.3693,0.3969,0.4127,0.3995,0.3876,0.3551,0.3392,0.3396,0.3777,0.3816,0.3854,0.371,0.3476,0.3476,0.2651,0.2645,0.264]},{"header":{"parameterUnit":"m.s-1","parameterCategory":2,"la1":30.2991,"la2":30.254,"lo1":-89.0895,"lo2":-89.0444,"dy":0.0017,"dx":0.0017,"nx":28,"ny":28,"refTime":"2025-06-22T21:00:00:Z","depth":"0","parameterNumber":3,"parameterNumberName":"V-component_of_CURRENTS"},"data":[0,0,0,0,0,0,0,0,0,0,0,0,0,0,0,0,0,0,0,0,0,0,0,0,0,0,0,0,0,0,0,0,0,0,0,0,0,0,0,0,0,0,0,0,0,0,0,0,0,0,0,0,0,0,0,0,0,0,0.0028,0.0027,0,-0.0037,-0.0038,-0.0038,-0.0087,-0.0087,-0.0087,-0.0088,-0.0169,-0.017,-0.0172,0,0,0,0,0,0,0,0,0,0,0,0,0,0.0081,0.008,0.0028,0.0027,0.0027,-0.0037,-0.0038,-0.0039,-0.0087,-0.0087,-0.0088,-0.0088,-0.0168,-0.017,-0.0173,0,0,0,0,0,0,0,0,0,0,0,0,0,0.004,0.008,0.0028,-0.0004,-0.0007,-0.0036,-0.0038,-0.0039,-0.0087,-0.0087,-0.0088,-0.0088,-0.0167,-0.017,-0.0173,-0.0181,0,0,-0.0181,-0.0183,0,0,0,0,0,0,0,0,0.0043,0.0038,0.0001,-0.0002,-0.0006,-0.0053,-0.0049,-0.0087,-0.0087,-0.0058,-0.0088,-0.0088,-0.013,-0.0136,-0.0149,-0.0185,-0.0188,-0.0182,-0.0183,-0.0185,-0.0185,0,0,0,0,0,0,0,0.0046,0.004,0.0001,0.0001,-0.0004,-0.0025,-0.0031,-0.0056,-0.0092,-0.0061,-0.0064,-0.0069,-0.0133,-0.0146,-0.0151,-0.0189,-0.0182,-0.0184,-0.0186,-0.0187,-0.025,-0.025,0,0,0,0,0,0,0.0058,0.0043,0.0003,-0.0001,0.0019,-0.0025,-0.0032,-0.0038,-0.0092,-0.01,-0.0068,-0.0071,-0.0141,-0.0148,-0.0154,-0.0147,-0.0185,-0.0187,-0.0189,-0.025,-0.025,-0.025,0,0,0,0,0,0,0.006,0.0055,0.0006,0.0021,0.0013,-0.0025,-0.0032,-0.0039,-0.005,-0.0097,-0.0106,-0.0071,-0.0142,-0.015,-0.0179,-0.0151,-0.0188,-0.0191,-0.025,-0.025,-0.025,-0.0145,0,0,0,0,0,0,0.0061,0.0056,0.0056,0.0022,0.0013,-0.0,-0.0032,-0.004,-0.0052,-0.0056,-0.0102,-0.0111,-0.0143,-0.0175,-0.0182,-0.0156,-0.0193,-0.025,-0.025,-0.025,-0.0148,-0.0141,-0.0135,0,0,0,0,0,0.0064,0.0072,0.0056,0.0051,0.0014,0.0001,-0.0005,-0.0036,-0.0052,-0.0049,-0.009,-0.0109,-0.018,-0.0177,-0.0186,-0.0159,-0.025,-0.025,-0.025,-0.0151,-0.0143,-0.0135,0,0,0,0,0,0,0.01,0.0067,0.0049,0.0047,0.0029,-0.0007,-0.0008,-0.0028,-0.0058,-0.0064,-0.0111,-0.0122,-0.0138,-0.017,-0.0166,-0.0182,-0.0217,-0.0219,-0.0139,-0.0132,-0.0125,-0.0085,-0.0196,0,0,0,0,0,0.0107,0.0102,0.007,0.0071,0.0062,0.0028,0.0018,-0.0,-0.003,-0.0044,-0.0076,-0.0115,-0.0145,-0.0155,-0.0191,-0.0194,-0.0203,-0.0186,-0.0179,-0.0173,-0.0149,-0.013,-0.0118,-0.025,-0.025,-0.025,0,0,0.0124,0.0105,0.0102,0.0078,0.0059,0.0065,0.0021,0.0015,0.0025,-0.0047,-0.0048,-0.0096,-0.0146,-0.0155,-0.0163,-0.0174,-0.0147,-0.0173,-0.0167,-0.0146,-0.0128,-0.0115,-0.0103,-0.025,-0.025,-0.025,0,0,0.0166,0.0136,0.015,0.0137,0.0115,0.0095,0.0098,0.0066,0.0056,0.0041,-0.0007,-0.0031,-0.0083,-0.0098,-0.0116,-0.0094,-0.0119,-0.0117,-0.0037,-0.0019,-0.0006,0.0004,-0.0007,0.0002,-0.0104,-0.0103,-0.0103,0,0.0189,0.0202,0.0154,0.0166,0.0171,0.0115,0.0144,0.0124,0.0089,0.0101,0.0053,0.0009,-0.0046,-0.0025,-0.0036,-0.0072,-0.0081,-0.0057,-0.0005,0.0005,0.0015,0.0001,0.001,-0.0098,-0.0099,-0.0099,-0.01,0,0.0243,0.0253,0.0263,0.0259,0.0253,0.0269,0.0237,0.0237,0.021,0.0197,0.02,0.0127,0.0116,0.008,0.0019,0.0062,0.0025,-0.0002,-0.0012,0.0036,0.0016,0.0023,-0.0091,-0.0093,-0.0094,-0.0096,0,0,0.0304,0.0304,0.031,0.0339,0.0309,0.0324,0.0334,0.0352,0.0401,0.034,0.0411,0.0315,0.0287,0.0263,0.02,0.0193,0.0218,0.0122,0.0121,0.0134,0.0241,0.0201,0.0204,0.0204,0.0206,0.0208,0.0195,0,0.0371,0.0431,0.0403,0.047,0.0504,0.0463,0.0493,0.0495,0.0489,0.0538,0.0476,0.0502,0.0357,0.0371,0.0336,0.0262,0.0244,0.0223,0.0172,0.0171,0.015,0.0214,0.0171,0.0156,0.0202,0.0203,0.0204,0,0.0439,0.0475,0.0549,0.0606,0.0619,0.0641,0.0706,0.0734,0.0763,0.0767,0.0769,0.0724,0.0706,0.0584,0.0488,0.0481,0.0366,0.0289,0.0287,0.0226,0.0147,0.0116,0.0167,-0.0056,0.0215,0.0214,0.0213,0,0.0528,0.0585,0.0657,0.0669,0.0709,0.0745,0.0777,0.0807,0.0894,0.094,0.1021,0.0952,0.0979,0.0829,0.0628,0.0573,0.0527,0.0442,0.0296,0.029,0.0234,0.022,0.0088,0.0385,0.0385,0.0385,0.0385,0,0.0617,0.0683,0.0708,0.0749,0.0868,0.0851,0.0995,0.1013,0.1113,0.1266,0.1164,0.1274,0.1044,0.0975,0.074,0.0555,0.0617,0.0335,0.0303,0.0263,0.0253,0.0038,-0.0091,0.0384,0.0385,0.0385,0.0385,0,0.0721,0.072,0.0823,0.0882,0.0911,0.1005,0.1155,0.1281,0.1333,0.154,0.158,0.1558,0.1465,0.1212,0.0996,0.0744,0.0407,0.0454,0.0404,0.0367,-0.0001,-0.0122,-0.0281,-0.0374,0.03,0.0299,0.0299,0,0.0788,0.0846,0.094,0.1017,0.1051,0.1188,0.1304,0.1387,0.1541,0.1725,0.1852,0.1829,0.1839,0.1492,0.1052,0.0673,0.0428,0.0365,0.0244,0.0,-0.0158,-0.0257,-0.0331,0.0195,0.0193,0.0192,0.0191,0,0.0946,0.0965,0.1053,0.1199,0.1316,0.1481,0.1646,0.1789,0.193,0.2093,0.2274,0.2298,0.1979,0.1585,0.1053,0.0755,0.0193,0.0328,0.0104,-0.0216,-0.0356,-0.0468,0.0155,0.018,0.0181,0.0182,0.0183,0.0183,0.1078,0.1171,0.1269,0.1407,0.1554,0.1736,0.1887,0.2079,0.2316,0.2555,0.2563,0.2632,0.2032,0.1307,0.0905,0.0106,0.013,-0.016,-0.0276,-0.0345,-0.0465,0.0127,0.0099,0.01,0.01,0.0101,0.0101,0,0.1229,0.1319,0.1476,0.1628,0.1801,0.184,0.2099,0.2258,0.2518,0.2732,0.287,0.2581,0.1875,0.1144,0.007,-0.0426,-0.0618,-0.0692,-0.0858,-0.0896,-0.0346,-0.0381,-0.0546,-0.0546,-0.0546,-0.0545,-0.0545,-0.0545,0.1317,0.147,0.1526,0.1795,0.1916,0.2147,0.2284,0.2509,0.2692,0.2893,0.2911,0.2894,0.223,0.044,-0.0742,-0.0988,-0.1315,-0.14,-0.1517,-0.1183,-0.1143,-0.1105,-0.1168,-0.1495,-0.1497,-0.2032,-0.2037,-0.2042]}],[{"header":{"parameterUnit":"m.s-1","parameterCategory":2,"la1":30.2991,"la2":30.254,"lo1":-89.0895,"lo2":-89.0444,"dy":0.0017,"dx":0.0017,"nx":28,"ny":28,"refTime":"2025-06-22T21:00:00:Z","depth":"2","parameterNumber":2,"parameterNumberName":"U-component_of_CURRENTS"},"data":[0,0,0,0,0,0,0,0,0,0,0,0,0,0,0,0,0,0,0,0,0,0,0,0,0,0,0,0,0,0,0,0,0,0,0,0,0,0,0,0,0,0,0,0,0,0,0,0,0,0,0,0,0,0,0,0,0,0,0.2996,0.2996,0,0.3023,0.3023,0.3023,0.306,0.3061,0.3062,0.3063,0.3071,0.307,0.3069,0,0,0,0,0,0,0,0,0,0,0,0,0,0.2871,0.2874,0.2996,0.2996,0.2997,0.3023,0.3023,0.3023,0.306,0.3061,0.3062,0.3063,0.3071,0.307,0.3069,0,0,0,0,0,0,0,0,0,0,0,0,0,0.2911,0.2874,0.2996,0.3022,0.3025,0.3023,0.3023,0.3023,0.3059,0.3061,0.3063,0.3064,0.3071,0.307,0.3069,0.3031,0,0,0.3065,0.3065,0,0,0,0,0,0,0,0,0.2908,0.2915,0.3017,0.302,0.3024,0.3044,0.2983,0.3026,0.3059,0.3041,0.3063,0.3065,0.3062,0.3061,0.3057,0.3032,0.3032,0.3065,0.3065,0.3064,0.3064,0,0,0,0,0,0,0,0.2906,0.2913,0.3002,0.3018,0.3022,0.2997,0.3005,0.299,0.3039,0.3043,0.3047,0.3057,0.3063,0.3058,0.3057,0.3032,0.3065,0.3064,0.3064,0.3063,0.3184,0.3187,0,0,0,0,0,0,0.2916,0.2911,0.3001,0.3003,0.2974,0.2999,0.3007,0.3032,0.3039,0.3044,0.3056,0.3059,0.3059,0.3059,0.3058,0.3136,0.3064,0.3063,0.3063,0.318,0.3184,0.3189,0,0,0,0,0,0,0.2913,0.2924,0.3,0.296,0.2969,0.3001,0.3027,0.3032,0.3047,0.305,0.3053,0.307,0.306,0.3059,0.3095,0.3132,0.3063,0.3062,0.3175,0.3181,0.3186,0.3213,0,0,0,0,0,0,0.291,0.2923,0.2948,0.2962,0.2972,0.3032,0.3026,0.3031,0.3052,0.3057,0.3062,0.3064,0.3061,0.3097,0.3093,0.3129,0.3061,0.317,0.3178,0.3185,0.3207,0.3219,0.3229,0,0,0,0,0,0.2905,0.2931,0.2949,0.296,0.3004,0.3034,0.3037,0.306,0.3052,0.3074,0.309,0.3065,0.3142,0.3097,0.3093,0.3129,0.3167,0.3176,0.3184,0.3203,0.3217,0.3229,0,0,0,0,0,0,0.2883,0.2938,0.2958,0.2999,0.3032,0.3043,0.306,0.3064,0.3087,0.3097,0.3085,0.3088,0.3153,0.3141,0.3092,0.3199,0.3161,0.3169,0.3177,0.319,0.3201,0.3209,0.306,0,0,0,0,0,0.2892,0.2934,0.2973,0.3009,0.3025,0.304,0.3053,0.3076,0.3095,0.3107,0.3113,0.3139,0.318,0.3183,0.3223,0.3238,0.3261,0.3276,0.3287,0.3295,0.3308,0.3375,0.3391,0.3217,0.3217,0.3217,0,0,0.2898,0.2929,0.2957,0.3009,0.3028,0.3064,0.3052,0.3089,0.3122,0.3101,0.3146,0.3179,0.3203,0.3259,0.3285,0.3247,0.3364,0.3306,0.3312,0.3321,0.3385,0.3401,0.3416,0.3223,0.3222,0.3221,0,0,0.2909,0.2954,0.2986,0.3022,0.307,0.3089,0.3104,0.3137,0.3158,0.32,0.3223,0.3278,0.3301,0.3342,0.3359,0.3448,0.3438,0.347,0.3494,0.3559,0.3573,0.3585,0.3649,0.3666,0.345,0.345,0.345,0,0.2912,0.2961,0.2999,0.3033,0.3066,0.3103,0.3139,0.3166,0.3212,0.3238,0.3233,0.3342,0.3347,0.3429,0.3467,0.3468,0.3503,0.3425,0.3568,0.358,0.3592,0.3655,0.3674,0.3453,0.3452,0.3452,0.3452,0,0.2944,0.299,0.3008,0.3076,0.3116,0.3158,0.3209,0.3254,0.3278,0.3311,0.3409,0.344,0.3508,0.3523,0.3505,0.3608,0.3608,0.3585,0.3517,0.361,0.3672,0.3691,0.3456,0.3455,0.3454,0.3454,0,0,0.2926,0.3015,0.3022,0.3057,0.3146,0.3175,0.3248,0.3319,0.3371,0.3432,0.3508,0.3575,0.3609,0.3636,0.3648,0.3678,0.3779,0.3655,0.3657,0.3689,0.3931,0.3825,0.3835,0.3771,0.3774,0.3777,0.3943,0,0.2936,0.3001,0.3047,0.3117,0.3158,0.3227,0.3294,0.3373,0.3432,0.3522,0.3586,0.3673,0.3648,0.369,0.373,0.3794,0.383,0.3737,0.3863,0.3868,0.3736,0.3854,0.3564,0.3677,0.3961,0.3964,0.3966,0,0.2941,0.2991,0.3053,0.3149,0.3172,0.3226,0.3342,0.3408,0.3547,0.36,0.3707,0.3766,0.388,0.3822,0.3972,0.3916,0.3929,0.3946,0.3953,0.3855,0.3797,0.3633,0.3701,0.3998,0.3995,0.3993,0.3991,0,0.2895,0.2986,0.3032,0.3068,0.3189,0.3232,0.3306,0.3436,0.3531,0.3666,0.3764,0.3888,0.3994,0.4043,0.409,0.4046,0.4228,0.4175,0.4095,0.4088,0.3867,0.3834,0.4255,0.4255,0.4255,0.4254,0.4254,0,0.2876,0.292,0.3017,0.3047,0.3128,0.3218,0.3318,0.3412,0.3596,0.3703,0.3814,0.3929,0.405,0.4161,0.416,0.4209,0.43,0.4134,0.4132,0.3872,0.3839,0.4127,0.411,0.426,0.4259,0.4258,0.4257,0,0.283,0.2884,0.2956,0.3073,0.3107,0.3175,0.3351,0.3441,0.3606,0.3761,0.3823,0.4041,0.4155,0.4248,0.4349,0.4312,0.4343,0.4313,0.4001,0.3957,0.4146,0.4129,0.4279,0.4277,0.4275,0.4273,0.4272,0,0.282,0.2845,0.2964,0.3009,0.3064,0.3168,0.3251,0.3432,0.355,0.3787,0.3883,0.4066,0.4121,0.4289,0.4267,0.4288,0.4328,0.4008,0.3854,0.417,0.4154,0.4139,0.4125,0.3592,0.3586,0.358,0.3576,0,0.281,0.2848,0.2903,0.2993,0.3066,0.3148,0.3285,0.3372,0.3555,0.3682,0.3828,0.3887,0.4049,0.3955,0.4005,0.3961,0.3986,0.3895,0.4342,0.3612,0.3531,0.3511,0.3519,0.3527,0.3532,0.3535,0.3538,0.354,0.28,0.2823,0.2878,0.2948,0.3042,0.3085,0.3085,0.3226,0.3329,0.3424,0.3603,0.3582,0.3678,0.36,0.3522,0.3492,0.3736,0.3572,0.3587,0.3607,0.3479,0.3396,0.3345,0.3349,0.3352,0.3355,0.3357,0,0.2766,0.2786,0.2828,0.2869,0.2914,0.3005,0.3074,0.3013,0.3009,0.3149,0.32,0.2971,0.2949,0.3046,0.2934,0.2955,0.29,0.2836,0.2738,0.2792,0.2839,0.2666,0.232,0.2316,0.2312,0.2309,0,0,0.2735,0.2719,0.2693,0.2697,0.2753,0.2701,0.2683,0.2621,0.2662,0.2573,0.2575,0.2779,0.2948,0.2571,0.2565,0.2419,0.2569,0.2331,0.3177,0.3116,0.3157,0.3295,0.3096,0,0,0,0,0]},{"header":{"parameterUnit":"m.s-1","parameterCategory":2,"la1":30.2991,"la2":30.254,"lo1":-89.0895,"lo2":-89.0444,"dy":0.0017,"dx":0.0017,"nx":28,"ny":28,"refTime":"2025-06-22T21:00:00:Z","depth":"2","parameterNumber":3,"parameterNumberName":"V-component_of_CURRENTS"},"data":[0,0,0,0,0,0,0,0,0,0,0,0,0,0,0,0,0,0,0,0,0,0,0,0,0,0,0,0,0,0,0,0,0,0,0,0,0,0,0,0,0,0,0,0,0,0,0,0,0,0,0,0,0,0,0,0,0,0,-0.0025,-0.0026,0,-0.0074,-0.0075,-0.0075,-0.012,-0.012,-0.0121,-0.0121,-0.0228,-0.0231,-0.0233,0,0,0,0,0,0,0,0,0,0,0,0,0,-0.0004,-0.0004,-0.0025,-0.0026,-0.0026,-0.0074,-0.0075,-0.0076,-0.012,-0.012,-0.0121,-0.0121,-0.0227,-0.023,-0.0233,0,0,0,0,0,0,0,0,0,0,0,0,0,-0.003,-0.0004,-0.0025,-0.0053,-0.0056,-0.0074,-0.0075,-0.0076,-0.012,-0.012,-0.0121,-0.0122,-0.0226,-0.023,-0.0234,-0.0244,0,0,-0.0245,-0.0246,0,0,0,0,0,0,0,0,-0.0028,-0.0031,-0.0048,-0.0051,-0.0054,-0.009,-0.0106,-0.0134,-0.0119,-0.0097,-0.0121,-0.0122,-0.0186,-0.0193,-0.0202,-0.0249,-0.0253,-0.0245,-0.0247,-0.0249,-0.025,0,0,0,0,0,0,0,-0.0026,-0.0029,-0.0046,-0.0049,-0.0053,-0.0075,-0.0079,-0.0112,-0.0139,-0.0099,-0.0102,-0.0105,-0.0189,-0.0198,-0.0205,-0.0255,-0.0245,-0.0248,-0.0251,-0.0252,-0.0319,-0.0318,0,0,0,0,0,0,-0.0015,-0.0027,-0.0044,-0.0047,-0.0041,-0.0074,-0.0079,-0.0079,-0.0138,-0.0147,-0.0105,-0.0107,-0.0192,-0.0201,-0.0209,-0.0212,-0.0249,-0.0252,-0.0255,-0.0319,-0.0319,-0.0318,0,0,0,0,0,0,-0.0015,-0.0016,-0.0042,-0.0038,-0.0042,-0.0074,-0.0074,-0.008,-0.0089,-0.0141,-0.0152,-0.0107,-0.0192,-0.0204,-0.0235,-0.0218,-0.0254,-0.0257,-0.032,-0.0319,-0.0318,-0.0227,0,0,0,0,0,0,-0.0014,-0.0016,-0.0013,-0.0037,-0.0042,-0.0045,-0.0073,-0.008,-0.0089,-0.0093,-0.0147,-0.0157,-0.0194,-0.0229,-0.0238,-0.0223,-0.026,-0.032,-0.0319,-0.0319,-0.0231,-0.0224,-0.0217,0,0,0,0,0,-0.0013,0.0002,-0.0013,-0.0015,-0.0037,-0.0044,-0.0049,-0.0075,-0.0088,-0.0086,-0.0124,-0.0156,-0.023,-0.0231,-0.0243,-0.0228,-0.0321,-0.032,-0.0319,-0.0234,-0.0225,-0.0218,0,0,0,0,0,0,0.0017,-0.0002,-0.0018,-0.001,-0.0025,-0.0051,-0.005,-0.0068,-0.0095,-0.0101,-0.0152,-0.0165,-0.0187,-0.0221,-0.0221,-0.0246,-0.028,-0.0281,-0.0211,-0.0204,-0.0197,-0.0173,-0.0263,0,0,0,0,0,0.0024,0.0026,0.0004,0.001,0.0005,-0.0023,-0.0029,-0.0045,-0.0071,-0.0083,-0.0121,-0.016,-0.0191,-0.0207,-0.0244,-0.0256,-0.029,-0.0255,-0.0248,-0.0242,-0.0231,-0.0267,-0.0262,-0.0315,-0.0315,-0.0315,0,0,0.0039,0.0027,0.0029,0.0016,0.0001,0.0009,-0.0028,-0.0031,-0.0023,-0.0091,-0.0097,-0.0142,-0.0191,-0.0206,-0.0218,-0.0231,-0.0245,-0.0241,-0.0235,-0.0227,-0.0265,-0.026,-0.0255,-0.0314,-0.0314,-0.0315,0,0,0.0075,0.0058,0.0073,0.0065,0.0049,0.0035,0.0038,0.0014,0.0002,-0.0012,-0.0057,-0.0086,-0.0137,-0.0161,-0.0182,-0.016,-0.0212,-0.0175,-0.0117,-0.0151,-0.0147,-0.0143,-0.0178,-0.0178,-0.0166,-0.0166,-0.0166,0,0.0092,0.0109,0.0077,0.0091,0.0096,0.0053,0.0078,0.0062,0.003,0.0029,-0.0004,-0.0064,-0.0111,-0.0117,-0.0113,-0.0142,-0.0174,-0.014,-0.0141,-0.0138,-0.0136,-0.0173,-0.0174,-0.0162,-0.0162,-0.0163,-0.0163,0,0.0141,0.0153,0.0165,0.0168,0.0166,0.0181,0.0158,0.0152,0.0127,0.0109,0.009,0.0025,-0.0006,-0.0028,-0.0067,-0.0068,-0.01,-0.013,-0.0156,-0.0125,-0.0166,-0.0169,-0.0155,-0.0157,-0.0158,-0.0159,0,0,0.0186,0.0198,0.0202,0.0223,0.0211,0.0222,0.023,0.0234,0.0255,0.0202,0.0226,0.0155,0.0118,0.0093,0.0041,0.0008,-0.0014,-0.0049,-0.0053,-0.0074,-0.0092,-0.0144,-0.0153,-0.0046,-0.0046,-0.0046,-0.0126,0,0.0237,0.0289,0.0276,0.0329,0.0358,0.0326,0.0347,0.0339,0.0319,0.0327,0.0261,0.0254,0.0167,0.0158,0.011,0.0023,-0.0019,0.001,-0.0128,-0.0132,-0.0173,-0.0157,-0.0115,-0.0185,-0.0129,-0.013,-0.013,0,0.0291,0.0322,0.0384,0.0425,0.0435,0.0454,0.0483,0.0501,0.0489,0.0475,0.0444,0.0387,0.034,0.026,0.0123,0.0144,0.0034,-0.0045,-0.0051,-0.0131,-0.0189,-0.021,-0.0194,-0.0137,-0.0136,-0.0136,-0.0135,0,0.0348,0.0399,0.0455,0.0467,0.0501,0.0523,0.0545,0.0546,0.0599,0.0578,0.0607,0.0512,0.0496,0.0343,0.016,0.0144,0.0003,-0.0039,-0.0191,-0.0196,-0.0204,-0.021,-0.0141,-0.0141,-0.014,-0.014,-0.014,0,0.0408,0.0456,0.0489,0.052,0.0602,0.0598,0.0678,0.0683,0.0733,0.079,0.0699,0.0722,0.0515,0.0402,0.0211,0.0003,0.0036,-0.0176,-0.0218,-0.0172,-0.0174,-0.0168,-0.017,-0.0143,-0.0143,-0.0142,-0.0142,0,0.046,0.0478,0.0553,0.0604,0.063,0.0692,0.0794,0.0863,0.0883,0.0957,0.0964,0.0906,0.0736,0.0508,0.0267,0.0089,-0.0119,-0.0208,-0.0144,-0.0178,-0.0309,-0.0305,-0.0374,-0.0376,-0.0378,-0.038,-0.0381,0,0.0488,0.0528,0.0619,0.0679,0.0706,0.0798,0.0874,0.0936,0.1025,0.1056,0.1119,0.0996,0.0902,0.0554,0.0221,-0.0115,-0.0157,-0.0295,-0.0327,-0.0298,-0.0332,-0.0325,-0.0319,-0.03,-0.03,-0.0301,-0.0301,0,0.0539,0.0568,0.0627,0.0753,0.0842,0.0958,0.1072,0.1173,0.1225,0.1282,0.1319,0.1248,0.0912,0.0602,0.0154,-0.0073,-0.0241,-0.0319,-0.0291,-0.0253,-0.0236,-0.0267,-0.0262,-0.0306,-0.0305,-0.0305,-0.0305,-0.0305,0.0563,0.061,0.0685,0.0811,0.0938,0.1083,0.1175,0.131,0.1439,0.1508,0.1447,0.136,0.1011,0.0458,0.008,-0.0296,-0.0293,-0.0421,-0.0415,-0.041,-0.0393,-0.0382,-0.0475,-0.0476,-0.0476,-0.0476,-0.0477,0,0.057,0.0625,0.0739,0.0867,0.1017,0.1089,0.1283,0.1368,0.1504,0.1587,0.159,0.1245,0.091,0.0519,-0.0035,-0.0387,-0.0395,-0.0498,-0.0416,-0.0409,-0.0404,-0.0384,-0.0466,-0.0466,-0.0467,-0.0468,0,0,0.0562,0.0636,0.0693,0.0892,0.1014,0.1181,0.1292,0.1435,0.1549,0.1613,0.1605,0.1519,0.105,0.0653,0.0178,-0.0131,-0.0189,-0.02,-0.0174,-0.0015,-0.0005,-0.0329,-0.0287,0,0,0,0,0]}],[{"header":{"parameterUnit":"m.s-1","parameterCategory":2,"la1":30.2991,"la2":30.254,"lo1":-89.0895,"lo2":-89.0444,"dy":0.0017,"dx":0.0017,"nx":28,"ny":28,"refTime":"2025-06-22T21:00:00:Z","depth":"4","parameterNumber":2,"parameterNumberName":"U-component_of_CURRENTS"},"data":[0,0,0,0,0,0,0,0,0,0,0,0,0,0,0,0,0,0,0,0,0,0,0,0,0,0,0,0,0,0,0,0,0,0,0,0,0,0,0,0,0,0,0,0,0,0,0,0,0,0,0,0,0,0,0,0,0,0,0.1768,0.1768,0,0.1809,0.1809,0.181,0.1861,0.1862,0.1863,0.1864,0.1896,0.1896,0.1896,0,0,0,0,0,0,0,0,0,0,0,0,0,0.1701,0.1702,0.1768,0.1768,0.1769,0.1809,0.1809,0.181,0.1861,0.1862,0.1863,0.1864,0.1896,0.1896,0.1896,0,0,0,0,0,0,0,0,0,0,0,0,0,0.1734,0.1703,0.1768,0.18,0.1803,0.1809,0.1809,0.181,0.1861,0.1862,0.1864,0.1865,0.1896,0.1896,0.1896,0.1869,0,0,0.1896,0.1896,0,0,0,0,0,0,0,0,0.1732,0.1737,0.1795,0.1798,0.1802,0.1832,0.1798,0.1829,0.1861,0.1838,0.1864,0.1866,0.1873,0.1875,0.1879,0.187,0.1871,0.1896,0.1896,0.1896,0.1896,0,0,0,0,0,0,0,0.173,0.1735,0.1783,0.1795,0.18,0.1801,0.1808,0.1804,0.1847,0.184,0.1844,0.185,0.1875,0.1879,0.188,0.1872,0.1896,0.1896,0.1896,0.1896,0.2003,0.2005,0,0,0,0,0,0,0.1727,0.1733,0.1782,0.1785,0.1771,0.1802,0.1809,0.182,0.1847,0.1853,0.1849,0.1852,0.1878,0.188,0.1881,0.1982,0.1896,0.1896,0.1896,0.2,0.2003,0.2006,0,0,0,0,0,0,0.1726,0.1731,0.178,0.176,0.1766,0.1802,0.1814,0.182,0.1868,0.1854,0.1859,0.1894,0.1879,0.1881,0.1924,0.1978,0.1896,0.1896,0.1997,0.2001,0.2005,0.2098,0,0,0,0,0,0,0.1723,0.173,0.1754,0.176,0.1768,0.182,0.1813,0.182,0.1866,0.1873,0.1893,0.1896,0.188,0.1924,0.1924,0.1977,0.1896,0.1993,0.1999,0.2004,0.2092,0.2105,0.2117,0,0,0,0,0,0.1721,0.1739,0.1755,0.1762,0.1794,0.1822,0.1827,0.1854,0.1868,0.19,0.1917,0.1897,0.1959,0.1926,0.1925,0.1979,0.199,0.1997,0.2003,0.2086,0.2103,0.2117,0,0,0,0,0,0,0.1721,0.1746,0.1764,0.179,0.1824,0.1832,0.1863,0.1878,0.1916,0.1934,0.1919,0.1923,0.1981,0.197,0.1935,0.203,0.1977,0.1983,0.204,0.2055,0.2068,0.2087,0.1896,0,0,0,0,0,0.1731,0.1754,0.1782,0.1807,0.1832,0.1857,0.1877,0.19,0.1924,0.1944,0.1958,0.198,0.1998,0.2021,0.2029,0.2074,0.2078,0.2115,0.2128,0.2139,0.2157,0.2218,0.2238,0.2027,0.2027,0.2027,0,0,0.1736,0.1753,0.1768,0.181,0.1839,0.1876,0.1875,0.1924,0.1964,0.1938,0.2008,0.2018,0.2019,0.2073,0.21,0.2078,0.2201,0.2147,0.2155,0.2168,0.2227,0.2248,0.2266,0.2032,0.2031,0.203,0,0,0.1743,0.1783,0.1806,0.1844,0.1899,0.1916,0.1943,0.1986,0.2026,0.208,0.2078,0.2132,0.2155,0.2178,0.2186,0.2276,0.2258,0.2286,0.2372,0.2432,0.2449,0.2465,0.2489,0.2506,0.2301,0.2301,0.2301,0,0.1752,0.1785,0.182,0.1858,0.1895,0.1941,0.1985,0.2025,0.2079,0.2122,0.2122,0.2204,0.2207,0.2277,0.2317,0.2305,0.2325,0.2308,0.2448,0.2463,0.2477,0.2499,0.2516,0.2306,0.2306,0.2305,0.2305,0,0.1773,0.1819,0.1843,0.1906,0.1952,0.2002,0.2062,0.2126,0.2176,0.2215,0.2314,0.2331,0.2387,0.2401,0.2386,0.2498,0.2473,0.2447,0.2405,0.2504,0.252,0.2537,0.2314,0.2312,0.231,0.2309,0,0,0.1746,0.1838,0.1854,0.1896,0.1989,0.2024,0.2113,0.2201,0.2273,0.2347,0.2436,0.2498,0.2534,0.2548,0.2552,0.2613,0.2726,0.2589,0.259,0.2606,0.2848,0.2659,0.2658,0.273,0.2733,0.2736,0.2814,0,0.176,0.1824,0.1878,0.1962,0.2003,0.2091,0.2167,0.2261,0.2343,0.2442,0.251,0.2592,0.2582,0.2628,0.2692,0.2712,0.2777,0.2706,0.2756,0.2757,0.2571,0.2673,0.2748,0.2826,0.283,0.2833,0.2835,0,0.1763,0.1808,0.1883,0.1994,0.2028,0.2094,0.224,0.232,0.2467,0.2537,0.2648,0.2695,0.2809,0.2778,0.2897,0.2856,0.2877,0.2886,0.2889,0.2693,0.2599,0.271,0.2864,0.2862,0.286,0.2858,0.2856,0,0.1707,0.1814,0.1873,0.1914,0.2044,0.2119,0.2209,0.2358,0.2439,0.2617,0.2692,0.2819,0.2896,0.2956,0.299,0.2965,0.3093,0.3048,0.2898,0.2884,0.2986,0.2968,0.3148,0.3148,0.3147,0.3147,0.3147,0,0.1679,0.1736,0.1861,0.1898,0.1994,0.2107,0.2237,0.2347,0.2503,0.2596,0.2748,0.2821,0.2954,0.3029,0.304,0.3014,0.3139,0.2934,0.2904,0.3021,0.3007,0.2996,0.2978,0.315,0.3149,0.3149,0.3148,0,0.1602,0.1685,0.1764,0.1914,0.1968,0.2046,0.2232,0.2313,0.2489,0.2612,0.2675,0.2859,0.296,0.3047,0.3141,0.3057,0.3058,0.3019,0.3142,0.3114,0.2795,0.2781,0.2858,0.2852,0.2847,0.2843,0.284,0,0.1566,0.1593,0.1753,0.1801,0.1879,0.201,0.2092,0.2284,0.2359,0.2597,0.2627,0.2809,0.2905,0.2893,0.2997,0.3015,0.2982,0.2959,0.2881,0.2809,0.2773,0.2767,0.2759,0.2832,0.2831,0.2829,0.2828,0,0.1488,0.1558,0.1623,0.171,0.1804,0.1898,0.2029,0.2064,0.2274,0.2449,0.2529,0.2598,0.2708,0.2777,0.2822,0.2822,0.2957,0.2907,0.2917,0.2843,0.2779,0.2746,0.2745,0.2811,0.2814,0.2815,0.2816,0,0.1434,0.1447,0.1525,0.1599,0.1702,0.1744,0.1842,0.1929,0.203,0.2282,0.2299,0.2496,0.267,0.2678,0.2707,0.2707,0.2666,0.2569,0.2595,0.2615,0.25,0.238,0.2285,0,0,0,0,0,0.1355,0.1344,0.1398,0.1462,0.156,0.1619,0.1769,0.1868,0.2063,0.2058,0.2172,0.2262,0.2344,0.2448,0.24,0.2596,0.2668,0.2528,0.2568,0.2718,0.2737,0.2623,0,0,0,0,0,0,0.1288,0.1323,0.1341,0.1334,0.1353,0.1437,0.153,0.1667,0.168,0.189,0.1952,0.2115,0.2233,0.2343,0.2352,0.2381,0.2358,0.2651,0.2645,0.2707,0.2724,0.274,0.263,0,0,0,0,0]},{"header":{"parameterUnit":"m.s-1","parameterCategory":2,"la1":30.2991,"la2":30.254,"lo1":-89.0895,"lo2":-89.0444,"dy":0.0017,"dx":0.0017,"nx":28,"ny":28,"refTime":"2025-06-22T21:00:00:Z","depth":"4","parameterNumber":3,"parameterNumberName":"V-component_of_CURRENTS"},"data":[0,0,0,0,0,0,0,0,0,0,0,0,0,0,0,0,0,0,0,0,0,0,0,0,0,0,0,0,0,0,0,0,0,0,0,0,0,0,0,0,0,0,0,0,0,0,0,0,0,0,0,0,0,0,0,0,0,0,0.0039,0.0039,0,0.001,0.0009,0.0009,-0.0019,-0.0019,-0.0019,-0.002,-0.0091,-0.0092,-0.0094,0,0,0,0,0,0,0,0,0,0,0,0,0,0.0034,0.0035,0.0039,0.0039,0.0039,0.001,0.0009,0.0009,-0.0019,-0.0019,-0.0019,-0.002,-0.009,-0.0092,-0.0094,0,0,0,0,0,0,0,0,0,0,0,0,0,0.0023,0.0035,0.0039,0.0022,0.002,0.001,0.0009,0.0009,-0.0019,-0.0019,-0.0019,-0.002,-0.009,-0.0092,-0.0094,-0.0102,0,0,-0.0102,-0.0103,0,0,0,0,0,0,0,0,0.0024,0.0023,0.0025,0.0023,0.0021,-0.0,-0.0019,-0.003,-0.0019,-0.0005,-0.002,-0.002,-0.0063,-0.0068,-0.0074,-0.0105,-0.0109,-0.0102,-0.0104,-0.0105,-0.0106,0,0,0,0,0,0,0,0.0025,0.0024,0.0026,0.0025,0.0022,0.0003,0.0001,-0.0021,-0.0033,-0.0006,-0.0008,-0.001,-0.0065,-0.0071,-0.0076,-0.011,-0.0102,-0.0104,-0.0106,-0.0107,-0.0156,-0.0156,0,0,0,0,0,0,0.0033,0.0025,0.0027,0.0026,0.0023,0.0004,0.0002,0.0006,-0.0032,-0.0038,-0.0009,-0.0011,-0.0067,-0.0073,-0.0078,-0.0084,-0.0105,-0.0107,-0.0109,-0.0156,-0.0156,-0.0156,0,0,0,0,0,0,0.0033,0.0034,0.0029,0.0025,0.0023,0.0005,0.001,0.0006,0.0,-0.0034,-0.0041,-0.0011,-0.0067,-0.0075,-0.0091,-0.0087,-0.0108,-0.011,-0.0156,-0.0156,-0.0156,-0.0099,0,0,0,0,0,0,0.0033,0.0034,0.0038,0.0026,0.0024,0.0028,0.001,0.0005,0.0,-0.0002,-0.0037,-0.0044,-0.0068,-0.0087,-0.0093,-0.0091,-0.0112,-0.0157,-0.0156,-0.0156,-0.0101,-0.0097,-0.0093,0,0,0,0,0,0.0033,0.0047,0.0038,0.0038,0.0031,0.0029,0.0026,0.001,0.0001,0.0003,-0.0019,-0.0043,-0.009,-0.0089,-0.0096,-0.0095,-0.0157,-0.0156,-0.0156,-0.0103,-0.0098,-0.0094,0,0,0,0,0,0,0.0051,0.0045,0.0035,0.0048,0.0039,0.0024,0.0026,0.0014,-0.0001,-0.0004,-0.0038,-0.0046,-0.0059,-0.0084,-0.0082,-0.0108,-0.0129,-0.013,-0.0086,-0.0081,-0.0077,-0.0069,-0.0115,0,0,0,0,0,0.0056,0.0063,0.0052,0.0061,0.0058,0.0041,0.0038,0.0028,0.0014,0.0007,-0.0017,-0.0044,-0.0063,-0.0077,-0.0099,-0.0112,-0.0149,-0.0118,-0.0114,-0.011,-0.0109,-0.0159,-0.0159,-0.0154,-0.0154,-0.0154,0,0,0.0066,0.0063,0.0068,0.0065,0.0056,0.0063,0.0038,0.0039,0.0043,0.0001,-0.0002,-0.0029,-0.0063,-0.0075,-0.0084,-0.0096,-0.0131,-0.011,-0.0106,-0.0107,-0.0158,-0.0159,-0.0159,-0.0154,-0.0154,-0.0154,0,0,0.0092,0.0087,0.01,0.0097,0.0089,0.008,0.0083,0.0069,0.006,0.0053,0.0025,0.0001,-0.0028,-0.0052,-0.0068,-0.0057,-0.0106,-0.0065,-0.0041,-0.0089,-0.009,-0.0092,-0.0139,-0.0145,-0.0066,-0.0066,-0.0066,0,0.0102,0.0119,0.0103,0.0115,0.0119,0.0092,0.0109,0.0098,0.0081,0.0074,0.0059,0.0011,-0.0018,-0.0037,-0.0032,-0.0048,-0.0084,-0.0054,-0.0084,-0.0086,-0.0088,-0.0137,-0.0144,-0.0063,-0.0064,-0.0064,-0.0064,0,0.0136,0.0149,0.0159,0.0165,0.0166,0.0177,0.0162,0.0158,0.0142,0.0125,0.0102,0.0059,0.0029,0.0014,-0.0005,-0.0031,-0.0054,-0.007,-0.0094,-0.0085,-0.0137,-0.0146,-0.0059,-0.006,-0.0061,-0.0062,0,0,0.0161,0.0179,0.0183,0.0196,0.0195,0.0202,0.0208,0.0205,0.0209,0.0173,0.0167,0.0124,0.0092,0.0072,0.0036,-0.0008,-0.0054,-0.0041,-0.0045,-0.0084,-0.0163,-0.0158,-0.0167,-0.0076,-0.0077,-0.0078,-0.0193,0,0.0192,0.0229,0.0229,0.0265,0.0283,0.0267,0.0278,0.0268,0.0249,0.0235,0.0176,0.0159,0.0117,0.0103,0.0052,-0.0025,-0.0074,-0.0021,-0.0169,-0.0173,-0.0167,-0.0176,-0.0082,-0.0199,-0.0201,-0.0203,-0.0204,0,0.0222,0.0246,0.0289,0.0319,0.0325,0.0341,0.0352,0.0361,0.0331,0.0312,0.0272,0.0226,0.0162,0.0125,-0.0015,0.0021,-0.0064,-0.0131,-0.0137,-0.0158,-0.0184,-0.0212,-0.022,-0.0219,-0.0218,-0.0217,-0.0216,0,0.0246,0.0288,0.0326,0.0337,0.0363,0.0379,0.0393,0.0383,0.0394,0.0364,0.0355,0.0269,0.0228,0.0109,-0.0028,-0.0024,-0.0189,-0.0203,-0.0282,-0.0284,-0.0279,-0.0277,-0.0305,-0.0305,-0.0305,-0.0305,-0.0304,0,0.0275,0.0307,0.0343,0.0364,0.0412,0.0419,0.0459,0.0457,0.0453,0.0469,0.0401,0.0381,0.0222,0.0111,-0.0019,-0.0178,-0.0188,-0.0282,-0.0313,-0.0252,-0.0246,-0.0285,-0.0282,-0.0309,-0.0308,-0.0307,-0.0306,0,0.0286,0.0314,0.0359,0.0402,0.0425,0.0457,0.0509,0.0535,0.0529,0.0543,0.0536,0.0451,0.0317,0.0146,-0.0051,-0.0156,-0.0313,-0.0367,-0.0291,-0.0316,-0.0379,-0.0371,-0.0466,-0.0467,-0.0468,-0.0468,-0.0469,0,0.0289,0.0315,0.0384,0.0419,0.0442,0.0499,0.0543,0.0569,0.0598,0.0588,0.0593,0.0482,0.0405,0.0138,-0.0048,-0.0305,-0.0337,-0.0424,-0.0401,-0.0375,-0.0396,-0.0387,-0.0378,-0.047,-0.047,-0.047,-0.047,0,0.0288,0.0315,0.0354,0.0434,0.0492,0.0562,0.0624,0.0653,0.0685,0.0674,0.0649,0.0519,0.0367,0.0159,-0.0043,-0.0227,-0.0371,-0.0432,-0.0432,-0.041,-0.038,-0.0398,-0.0389,-0.0473,-0.0472,-0.0472,-0.0472,0,0.0281,0.0308,0.0369,0.0445,0.0523,0.0607,0.064,0.0686,0.0721,0.0714,0.0703,0.0549,0.0458,0.0198,0.001,-0.0169,-0.0213,-0.0269,-0.0278,-0.0278,-0.0189,-0.0121,-0.0163,0,0,0,0,0,0.0274,0.032,0.0378,0.0471,0.055,0.0607,0.0689,0.0718,0.0754,0.075,0.0732,0.0599,0.0346,0.0237,0.0061,-0.0025,-0.0266,-0.0241,-0.034,-0.0485,-0.0483,-0.0409,0,0,0,0,0,0,0.0271,0.0327,0.0375,0.0487,0.0553,0.0652,0.0712,0.0735,0.0737,0.0742,0.0618,0.0553,0.0307,0.0451,0.0058,0.0001,-0.0086,-0.0362,-0.0366,-0.0487,-0.0484,-0.0482,-0.0405,0,0,0,0,0]}]]